sat.trackr.live / text

‹ back to catalog

STARLINK-32259

NORAD 60937 · 2024-155P

PAYLOAD ACTIVE UNKNOWN

§ Identity

Operator
Country
US
Launch date
2024-08-31
Launch site
AFWTR
Launch vehicle
Mass (kg)
RCS (m²)

Purposes: comms

External: N2YO · Heavens-Above · Gunter

§ Orbital elements

Epoch: 2026-05-25T03:23:35.995776Z

Period
94.11 min
Inclination
53.1591°
Eccentricity
0.0001415
Mean motion
15.30195547 rev/d
Perigee alt
474.3 km
Apogee alt
476.2 km
Semi-major
6,853.4 km
B*
5.3188e-5
RAAN
134.7235°
Arg perigee
86.2241°
Mean anomaly
273.8922°
Rev number
9,804

§ Raw data

STARLINK-322591 60937U 24155P   26145.14138884  .00001216  00000+0  53188-4 0  99952 60937  53.1591 134.7235 0001415  86.2241 273.8922 15.30195547 98044

JSON: /api/v1/satellites/60937 · /tle

For live sub-satellite position, see the globe view (requires WebGL).

§ Visibility from observer

Set your observer location to see the next 7 days of passes ≥ 10°. The values pass through the URL so the page stays shareable.

No JS? Fill the form by hand. The geolocation button needs JavaScript.